Date String (YYYY-MM-DD hh:mm:ss) UTC,Instrument flags,Ambient pressure (hPa),Sample flow (lpm),Bypass flow (lpm),Sample temperature (°C),Ambient temperature (°C),ASC tube jacket temperature (°C),LED temperature (°C),Box temperature (°C),Sample RH (%),Span deviation,Mass concentration (μg/m³),Mass concentration (μg/m³),Mass concentration (μg/m³)
DateTimeUTC,F1_M11,P_M11,Q1_M11,Q2_M11,T1_M11,T2_M11,T3_M11,T4_M11,T5_M11,U1_M11,ZSPAN_M11,X0_M11,X2_M11,X1_M11
2022-08-10 03:00:00,,0830.9,5.00,0.00,29.4,28.3,00.0,38.1,31.4,27.9,0000.0,0019.85,0005.74,0004.38
2022-08-10 03:01:00,,0830.9,5.01,0.00,29.5,28.4,00.0,38.1,31.5,27.5,0000.0,0019.79,0005.78,0004.36
2022-08-10 03:02:00,,0830.9,5.00,0.00,29.5,28.1,00.0,38.1,31.4,27.4,0000.0,0019.98,0005.79,0004.35
2022-08-10 03:03:00,,0830.9,5.01,0.00,29.4,27.3,00.0,38.1,31.2,27.7,0000.0,0019.64,0005.79,0004.33
2022-08-10 03:04:00,,0830.9,4.99,0.00,29.4,27.0,00.0,38.1,31.1,27.7,0000.0,0020.01,0005.80,0004.31
2022-08-10 03:05:00,,0831.0,5.01,0.00,29.3,27.1,00.0,38.1,31.1,27.6,0000.0,0020.92,0005.84,0004.28
2022-08-10 03:06:00,,0831.0,5.01,0.00,29.3,27.2,00.0,38.1,31.0,28.0,0000.0,0020.83,0005.74,0004.25
2022-08-10 03:07:00,,0831.0,5.00,0.00,29.2,27.4,00.0,38.0,31.0,28.2,0000.0,0019.49,0005.63,0004.23
2022-08-10 03:08:00,,0831.1,5.00,0.00,29.3,27.6,00.0,38.0,31.1,28.1,0000.0,0018.18,0005.59,0004.22
2022-08-10 03:09:00,,0831.1,5.00,0.00,29.3,27.8,00.0,38.1,31.2,28.1,0000.0,0017.06,0005.61,0004.20
2022-08-10 03:10:00,,0831.0,5.00,0.00,29.3,28.0,00.0,38.1,31.3,28.3,0000.0,0017.94,0005.61,0004.17
2022-08-10 03:11:00,,0831.0,5.00,0.00,29.4,28.1,00.0,38.1,31.3,28.5,0000.0,0017.41,0005.57,0004.16
2022-08-10 03:12:00,,0831.0,5.00,0.00,29.4,28.3,00.0,38.1,31.4,28.0,0000.0,0017.22,0005.54,0004.13
2022-08-10 03:13:00,,0831.1,5.00,0.00,29.5,28.5,00.0,38.1,31.4,27.8,0000.0,0017.86,0005.52,0004.11
2022-08-10 03:14:00,,0831.1,5.00,0.00,29.5,28.3,00.0,38.1,31.4,27.6,0000.0,0017.21,0005.47,0004.09
2022-08-10 03:15:00,,0831.1,4.99,0.00,29.4,27.5,00.0,38.1,31.2,27.9,0000.0,0016.46,0005.41,0004.07
2022-08-10 03:16:00,,0831.1,4.99,0.00,29.4,27.1,00.0,38.1,31.2,27.8,0000.0,0014.86,0005.35,0004.06
2022-08-10 03:17:00,,0831.1,5.00,0.00,29.3,27.0,00.0,38.1,31.1,27.8,0000.0,0015.32,0005.36,0004.05
2022-08-10 03:18:00,,0831.1,5.01,0.00,29.3,27.2,00.0,38.1,31.0,27.9,0000.0,0016.26,0005.41,0004.03
2022-08-10 03:19:00,,0831.1,5.00,0.00,29.3,27.3,00.0,38.1,31.1,28.1,0000.0,0016.68,0005.35,0004.01
2022-08-10 03:20:00,,0831.1,4.99,0.00,29.3,27.5,00.0,38.1,31.1,28.3,0000.0,0016.38,0005.27,0003.98
2022-08-10 03:21:00,,0831.2,5.02,0.00,29.3,27.7,00.0,38.1,31.2,28.1,0000.0,0015.32,0005.19,0003.97
2022-08-10 03:22:00,,0831.2,5.00,0.00,29.3,27.9,00.0,38.1,31.3,28.0,0000.0,0015.74,0005.18,0003.95
2022-08-10 03:23:00,,0831.2,5.01,0.00,29.4,28.1,00.0,38.1,31.3,27.9,0000.0,0015.33,0005.20,0003.96
2022-08-10 03:24:00,,0831.2,4.99,0.00,29.4,28.3,00.0,38.1,31.4,27.8,0000.0,0014.69,0005.22,0003.96
2022-08-10 03:25:00,,0831.2,4.99,0.00,29.5,28.4,00.0,38.1,31.5,27.8,0000.0,0015.12,0005.25,0003.95
2022-08-10 03:26:00,,0831.2,5.00,0.00,29.5,28.5,00.0,38.2,31.5,27.7,0000.0,0015.36,0005.27,0003.94
2022-08-10 03:27:00,,0831.2,4.99,0.00,29.5,28.2,00.0,38.2,31.4,27.8,0000.0,0016.46,0005.29,0003.94
2022-08-10 03:28:00,,0831.2,5.01,0.00,29.5,27.4,00.0,38.1,31.2,27.9,0000.0,0016.55,0005.32,0003.95
2022-08-10 03:29:00,,0831.2,5.00,0.00,29.4,27.1,00.0,38.1,31.1,28.0,0000.0,0016.31,0005.29,0003.95
2022-08-10 03:30:00,,0831.2,5.00,0.00,29.3,27.0,00.0,38.1,31.0,28.2,0000.0,0016.65,0005.34,0003.95
2022-08-10 03:31:00,,0831.2,4.99,0.00,29.2,27.2,00.0,38.1,31.0,28.2,0000.0,0017.32,0005.39,0003.95
2022-08-10 03:32:00,,0831.2,5.01,0.00,29.2,27.3,00.0,38.1,31.0,28.4,0000.0,0017.71,0005.41,0003.95
2022-08-10 03:33:00,,0831.2,5.00,0.00,29.3,27.5,00.0,38.1,31.1,28.3,0000.0,0017.73,0005.45,0003.95
2022-08-10 03:34:00,,0831.2,5.01,0.00,29.3,27.7,00.0,38.1,31.2,28.3,0000.0,0018.34,0005.42,0003.94
2022-08-10 03:35:00,,0831.3,5.00,0.00,29.3,27.9,00.0,38.1,31.2,28.3,0000.0,0018.52,0005.42,0003.95
2022-08-10 03:36:00,,0831.3,5.00,0.00,29.4,28.1,00.0,38.1,31.3,28.3,0000.0,0018.44,0005.41,0003.97
2022-08-10 03:37:00,,0831.3,4.99,0.00,29.4,28.3,00.0,38.1,31.4,28.1,0000.0,0018.54,0005.41,0003.98
2022-08-10 03:38:00,,0831.3,5.00,0.00,29.5,28.4,00.0,38.1,31.5,28.2,0000.0,0018.25,0005.41,0003.97
2022-08-10 03:39:00,,0831.3,5.00,0.00,29.5,28.5,00.0,38.2,31.5,28.0,0000.0,0018.04,0005.38,0003.97
2022-08-10 03:40:00,,0831.4,5.00,0.00,29.5,28.0,00.0,38.1,31.4,27.8,0000.0,0017.44,0005.38,0003.96
2022-08-10 03:41:00,,0831.4,4.99,0.00,29.4,27.4,00.0,38.1,31.2,27.9,0000.0,0017.13,0005.32,0003.94
2022-08-10 03:42:00,,0831.4,5.00,0.00,29.4,27.1,00.0,38.1,31.2,28.0,0000.0,0016.63,0005.31,0003.95
2022-08-10 03:43:00,,0831.5,5.00,0.00,29.3,27.1,00.0,38.1,31.1,28.3,0000.0,0016.46,0005.33,0003.96
2022-08-10 03:44:00,,0831.5,5.01,0.00,29.3,27.2,00.0,38.1,31.0,28.3,0000.0,0016.19,0005.28,0003.96
2022-08-10 03:45:00,,0831.6,5.00,0.00,29.3,27.4,00.0,38.1,31.1,28.6,0000.0,0015.18,0005.25,0003.95
2022-08-10 03:46:00,,0831.5,5.00,0.00,29.3,27.6,00.0,38.1,31.1,28.2,0000.0,0015.77,0005.22,0003.94
2022-08-10 03:47:00,,0831.5,5.00,0.00,29.3,27.8,00.0,38.1,31.2,28.3,0000.0,0016.17,0005.23,0003.93
2022-08-10 03:48:00,,0831.5,5.00,0.00,29.3,28.0,00.0,38.1,31.3,28.3,0000.0,0016.26,0005.19,0003.91
2022-08-10 03:49:00,,0831.5,5.00,0.00,29.4,28.1,00.0,38.1,31.3,28.2,0000.0,0015.47,0005.16,0003.90
2022-08-10 03:50:00,,0831.6,5.01,0.00,29.4,28.3,00.0,38.1,31.4,28.1,0000.0,0014.63,0005.21,0003.90
2022-08-10 03:51:00,,0831.6,5.00,0.00,29.5,28.4,00.0,38.2,31.5,28.3,0000.0,0014.76,0005.25,0003.91
2022-08-10 03:52:00,,0831.6,5.01,0.00,29.5,28.4,00.0,38.2,31.5,28.3,0000.0,0015.28,0005.33,0003.92
2022-08-10 03:53:00,,0831.6,4.99,0.00,29.5,27.8,00.0,38.1,31.3,28.2,0000.0,0015.37,0005.35,0003.92
2022-08-10 03:54:00,,0831.6,5.01,0.00,29.4,27.2,00.0,38.1,31.2,28.3,0000.0,0015.76,0005.33,0003.91
2022-08-10 03:55:00,,0831.6,5.00,0.00,29.3,27.0,00.0,38.1,31.1,28.5,0000.0,0014.97,0005.32,0003.90
2022-08-10 03:56:00,,0831.6,5.00,0.00,29.3,27.0,00.0,38.1,31.0,28.6,0000.0,0014.94,0005.37,0003.90
2022-08-10 03:57:00,,0831.6,5.01,0.00,29.2,27.2,00.0,38.0,31.0,28.8,0000.0,0013.73,0005.41,0003.90
2022-08-10 03:58:00,,0831.6,5.01,0.00,29.2,27.4,00.0,38.0,31.0,28.8,0000.0,0012.83,0005.36,0003.89
2022-08-10 03:59:00,,0831.6,5.00,0.00,29.2,27.6,00.0,38.0,31.1,29.1,0000.0,0013.00,0005.36,0003.89
